This is the latest recevied weather packets stored in our database for station/object N9WHM. If no packets are shown the sender has not sent any weather packets the latest 1 day(s).
| Time | Temp. | Humidity | Pressure | Rain* | Wind** | Luminosity | Snow |
|---|---|---|---|---|---|---|---|
| 1778038391 | 7.78° C | 41% | 1015 hPa | 0 mm | 1.79 m/s, 6° | 0 W/m² | - |
| 1778038088 | 7.78° C | 41% | 1015 hPa | 0 mm | 0.45 m/s, 48° | 0 W/m² | - |
| 1778037784 | 8.33° C | 41% | 1014.8 hPa | 0 mm | 0.45 m/s, 43° | 0 W/m² | - |
| 1778037481 | 8.33° C | 40% | 1014.5 hPa | 0 mm | 0 m/s | 0 W/m² | - |
| 1778037178 | 8.33° C | 39% | 1014.9 hPa | 0 mm | 1.34 m/s, 24° | 0 W/m² | - |
| 1778036876 | 8.33° C | 40% | 1014.5 hPa | 0 mm | 0.89 m/s, 50° | 0 W/m² | - |
| 1778036574 | 8.33° C | 39% | 1014.5 hPa | 0 mm | 0.89 m/s, 25° | 0 W/m² | - |
| 1778036271 | 8.33° C | 39% | 1014.5 hPa | 0 mm | 1.34 m/s, 35° | 0 W/m² | - |
| 1778035967 | 8.33° C | 39% | 1014.3 hPa | 0 mm | 0 m/s | 0 W/m² | - |
| 1778035664 | 8.33° C | 39% | 1014.2 hPa | 0 mm | 1.34 m/s, 35° | 0 W/m² | - |
| 1778035361 | 8.89° C | 38% | 1014.3 hPa | 0 mm | 0.45 m/s, 9° | 0 W/m² | - |
| 1778035057 | 8.89° C | 38% | 1014.2 hPa | 0 mm | 0.89 m/s, 45° | 0 W/m² | - |
| 1778034754 | 8.89° C | 37% | 1013.9 hPa | 0 mm | 0.89 m/s, 30° | 0 W/m² | - |
| 1778034450 | 8.89° C | 37% | 1014 hPa | 0 mm | 0.89 m/s, 47° | 0 W/m² | - |
| 1778034148 | 9.44° C | 36% | 1014.1 hPa | 0 mm | 0.89 m/s, 53° | 0 W/m² | - |
| 1778033846 | 9.44° C | 37% | 1013.7 hPa | 0 mm | 1.79 m/s, 86° | 0 W/m² | - |
| 1778033543 | 9.44° C | 37% | 1013.7 hPa | 0 mm | 1.34 m/s, 34° | 0 W/m² | - |
| 1778033240 | 9.44° C | 37% | 1013.5 hPa | 0 mm | 1.34 m/s, 50° | 0 W/m² | - |
| 1778032938 | 9.44° C | 36% | 1013.7 hPa | 0 mm | 0.45 m/s, 47° | 0 W/m² | - |
| 1778032630 | 10° C | 36% | 1013.7 hPa | 0 mm | 0.89 m/s, 27° | 0 W/m² | - |
| 1778032327 | 10° C | 35% | 1013.4 hPa | 0 mm | 0.45 m/s, 346° | 0 W/m² | - |
| 1778032024 | 10° C | 35% | 1013.3 hPa | 0 mm | 0.45 m/s, 61° | 0 W/m² | - |
| 1778031720 | 10° C | 35% | 1013.4 hPa | 0 mm | 1.34 m/s, 356° | 0 W/m² | - |
| 1778031418 | 10.56° C | 34% | 1013.5 hPa | 0 mm | 0.89 m/s, 57° | 1 W/m² | - |
| 1778031115 | 10.56° C | 34% | 1013.3 hPa | 0 mm | 0.89 m/s, 341° | 1 W/m² | - |
* Rain latest hour (hover to see other rain measurements)
** Current wind speed in m/s (hover to see current wind gust speed)